Погода в Иловке

Россия / Томская область     56°53′19″N   86°49′25″E
темп.,
°C
ветер,
м/с
пор.,
м/с
влажн.,
%
обл.,
%
осадки,
мм/ч
давл.,
гПа
погр.,
м
23 апреля, пт
пт2301:00−2ссв37945 0.1 1044135
04:00−4ссв25955 0.0 104584
07:00−3св25925 0.0 1046132
10:00+3св35785 0.0 1046587
13:00+5св455698 0.1 10441571
16:00+6св455490 0.0 10431574
19:00+4св367024 0.1 1043216
22:000св37865 0.0 1043102
24 апреля, сб
сб2401:00−1св37895 0.0 1042120
04:00−2св37905 0.0 1040120
07:00−1ссв388779 0.0 1038220
10:00+3ссв4670100 0.0 1036572
13:00+6ссв4457100 0.0 10341423
16:00+7с4453100 0.0 10321504
19:00+5ссз3669100 0.1 1032364
22:00+1с3484100 0.0 103269
25 апреля, вс
вс2501:000ссз228892 0.0 103136
04:000сз2288100 0.0 103139
07:00+1зсз248397 0.0 1032127
10:00+5зсз346578 0.0 1031639
13:00+7зсз3354100 0.0 10311430
16:00+9сз344893 0.0 10301651
19:00+8ссз345814 0.0 10301004
22:00+4зсз11745 0.0 103010
26 апреля, пн
пн2601:00+2зсз11825 0.0 103110
04:00+1з11865 0.0 103010
07:00+2юз11805 0.0 103148
10:00+7ююз22615 0.0 1030527
13:00+10юз334877 0.0 10291597
16:00+12ююз334288 0.0 10271896
19:00+11ю244761 0.0 1025815
22:00+7ю41066100 0.0 1025297
27 апреля, вт
вт2701:00+6ююв3107495 0.0 1023240
04:00+5юв41074100 0.0 1020264
07:00+5юв51268100 0.0 1017466
10:00+4ююз4993100 1.9 1016497
13:00+9зсз5106590 2.3 10151457
16:00+12зсз694299 0.6 10162373
19:00+10з595363 1.0 1017721
22:00+6юз347333 0.1 101753